Wind_Speed
12 12 13 12 12 12 14 15 16 17 21 21 21 22 22 23 25 27 27 28 30 27 27 31 33 34 35 35 32 29 31 34 30 34 31 30 32 34 31 30 30 28 29
16 14 11 13 14 18 21 23 24 26 29 31 31 32 32 32 34 35 37 36 36 36 36 35 34 34 36 38 37 37 36 35 36 39 39 39 38 38 37 37 35 33 33
18 17 23 27 21 27 30 32 34 36 38 39 42 42 43 44 45 44 45 45 46 46 44 44 43 41 42 41 40 36 37 39 39 39 40 38 37 35 36 38 38 37 35
18 21 26 28 34 39 40 40 46 49 48 49 50 52 54 54 55 55 56 56 55 54 54 51 48 48 47 45 43 41 39 39 41 44 45 40 36 34 36 36 34 30 33
18 23 26 31 39 45 46 48 53 58 58 59 62 63 64 64 64 64 64 64 64 62 61 61 56 52 48 49 49 46 45 43 42 43 46 43 38 38 30 27 27 27 23
27 30 34 38 42 46 50 54 57 59 62 63 65 67 68 68 68 67 68 69 69 68 65 63 61 58 54 50 50 49 48 47 46 45 46 47 43 41 38 37 33 32 35
37 40 42 45 46 49 52 55 58 61 64 65 66 66 68 68 68 68 67 67 69 69 67 65 63 61 59 55 51 50 50 49 48 46 46 47 48 47 43 46 46 46 46
35 36 38 41 42 45 47 50 54 56 57 59 61 63 65 66 66 66 67 69 70 68 67 66 65 63 61 58 54 51 51 51 49 48 49 45 49 50 49 50 52 53 53
34 36 38 39 42 45 49 53 56 57 56 53 51 55 57 62 63 63 63 66 68 68 70 68 65 63 63 60 56 54 51 51 48 49 51 48 50 50 48 49 52 51 49
32 34 36 38 42 46 46 50 52 51 50 50 47 47 50 56 57 58 59 60 63 65 64 68 70 66 61 61 57 54 54 50 47 48 51 49 49 50 43 44 46 48 47
31 32 34 36 38 41 44 49 47 52 50 44 43 42 42 49 50 51 50 53 56 56 58 62 64 69 66 60 57 55 54 50 47 51 51 50 49 46 44 43 43 40 40
28 30 32 33 36 35 41 45 42 55 48 49 49 47 44 40 35 40 44 48 51 52 53 54 55 58 63 61 56 55 52 52 50 53 54 52 48 47 44 44 42 41 40
27 29 30 32 33 37 40 44 45 54 47 51 48 49 45 39 34 35 38 44 47 49 50 49 49 50 53 58 56 53 49 50 51 55 55 54 46 44 39 41 37 39 37
28 28 29 30 27 32 38 38 44 50 47 46 46 52 55 43 35 36 40 37 37 41 40 39 41 45 47 50 47 49 50 49 51 54 54 49 48 39 39 41 41 38 37
26 25 24 22 25 32 33 36 38 42 50 46 44 43 51 57 44 35 36 36 38 36 37 39 39 41 43 44 43 44 47 47 50 53 52 48 47 41 47 41 38 39 37
25 21 21 24 23 28 35 32 34 40 44 49 42 35 36 48 55 42 36 33 34 33 38 42 42 38 36 36 39 42 44 46 46 48 48 43 39 37 32 34 37 36 37
19 20 21 20 23 25 29 30 38 42 39 46 49 39 36 31 40 27 25 21 19 22 30 33 35 27 32 33 31 33 38 39 38 43 44 42 31 34 31 32 35 34 33
18 19 21 21 28 27 35 44 41 44 44 47 45 51 42 38 17 21 16 18 15 14 19 22 27 28 28 26 30 29 30 32 36 36 38 34 32 36 32 29 35 30 30
16 15 20 24 27 34 26 36 41 41 45 47 47 44 49 51 43 10 12 13 14 14 12 13 19 21 23 26 23 29 29 32 31 32 33 31 41 37 36 29 22 20 19
18 17 21 22 25 29 27 28 42 37 44 43 46 45 42 42 43 39 24 14 6 6 8 11 13 17 21 21 22 21 29 35 26 37 30 38 26 27 25 22 19 15 15
17 19 20 21 22 27 30 31 37 35 39 40 42 44 38 40 39 38 32 27 31 32 23 13 9 11 12 14 20 19 25 24 22 23 33 29 29 27 26 22 18 18 16
18 16 22 22 20 26 27 30 32 31 30 34 39 41 40 39 37 34 30 31 31 24 22 20 28 27 25 23 18 18 18 25 17 19 24 18 15 12 16 17 9 6 6
19 18 25 22 24 22 26 26 24 25 23 23 28 32 37 38 38 38 34 30 27 25 31 29 20 15 20 24 22 17 13 18 18 16 15 12 8 7 9 9 5 5 2
22 24 24 28 25 24 24 22 22 20 20 19 19 19 24 32 37 37 35 35 32 27 24 18 16 16 14 14 9 10 9 9 8 7 7 16 15 11 9 14 14 9 5
24 21 22 22 24 20 22 20 19 17 17 16 17 16 17 18 18 27 32 34 30 27 25 21 15 13 10 5 5 3 4 6 7 7 9 11 12 13 13 10 11 15 19
19 18 21 20 18 18 19 19 16 16 17 15 16 17 15 18 19 15 22 25 21 27 29 24 20 16 15 13 11 10 7 7 8 9 12 14 17 18 19 20 22 22 17
Wind_Direction
233 188 206 212 237 254 266 266 283 269 282 287 287 284 286 289 290 290 290 291 291 291 290 287 288 287 286 283 279 270 272 284 284 287 287 289 288 290 288 288 290 291 293
249 237 229 238 251 267 273 277 277 281 286 290 287 287 287 285 285 287 287 287 288 288 286 283 282 280 282 283 281 277 276 273 272 273 281 285 289 291 292 291 291 292 293
238 251 265 276 277 280 280 282 284 284 286 286 287 287 286 286 287 287 285 285 286 287 284 283 282 279 277 278 275 279 279 280 281 278 280 280 286 297 300 299 298 297 294
268 281 284 270 257 272 279 284 287 287 286 286 287 287 287 287 287 288 287 286 283 282 284 282 280 278 275 273 273 271 272 274 276 275 281 289 290 290 288 289 291 293 300
276 277 277 275 269 277 290 286 284 285 288 288 288 287 286 285 285 285 283 282 281 280 279 279 278 276 273 271 270 269 267 268 270 271 273 277 282 282 283 287 281 288 280
280 282 282 283 284 285 286 287 289 289 289 289 287 286 285 284 283 282 281 280 279 278 276 274 273 273 272 270 267 266 265 264 264 264 267 268 271 267 279 272 266 264 265
297 297 296 297 296 296 296 296 295 294 294 292 290 288 286 284 281 279 276 274 273 273 273 272 270 268 268 268 266 264 263 262 264 263 259 260 262 262 270 263 267 271 269
293 293 293 292 294 294 297 296 295 295 292 288 287 284 282 280 277 275 273 270 268 266 266 267 266 265 264 264 264 261 260 260 258 260 261 263 261 263 263 266 269 269 270
297 298 301 307 308 310 310 310 309 306 299 293 287 283 282 280 278 275 271 268 264 264 261 259 260 260 260 260 260 259 256 256 256 256 258 256 261 263 264 266 268 272 272
303 306 312 315 316 317 319 322 323 322 309 301 289 283 280 285 284 280 279 277 271 265 262 261 255 256 257 257 258 257 255 253 255 253 255 256 258 261 264 261 271 274 278
312 316 317 318 319 321 325 330 324 330 322 307 305 300 287 285 283 279 279 279 278 273 266 260 257 255 251 252 252 253 253 251 249 251 250 251 253 261 264 261 269 273 278
318 319 323 320 321 324 328 325 324 330 324 316 309 307 303 292 284 277 277 278 278 278 274 266 259 256 256 253 249 248 249 247 245 247 247 247 249 253 263 264 266 273 280
320 323 321 313 323 329 327 326 329 336 326 319 316 315 313 301 291 291 286 283 284 278 272 268 263 257 255 255 254 249 246 243 244 244 245 245 247 250 260 260 262 268 273
319 321 316 326 337 321 329 328 338 343 336 331 318 316 315 311 301 297 294 284 285 279 270 260 259 253 248 247 243 243 242 238 239 243 245 246 243 250 249 256 261 267 266
320 319 329 322 321 320 321 329 347 346 349 342 339 324 313 313 304 304 295 287 282 279 266 253 251 248 246 242 236 236 240 238 239 241 243 246 248 246 252 256 260 262 258
322 322 316 328 326 327 321 332 354 347 352 347 345 342 326 302 300 299 303 291 285 273 264 257 247 244 241 238 234 235 235 241 240 241 241 247 249 252 249 251 251 253 259
324 319 330 338 320 321 327 330 333 345 345 348 348 340 353 322 308 318 307 297 295 285 276 263 253 234 240 235 232 239 239 242 240 239 244 244 246 245 244 249 249 252 255
316 331 340 318 322 332 334 337 334 347 349 350 354 356 2 18 325 326 313 299 286 269 268 267 265 258 243 255 242 245 241 240 233 240 235 232 235 222 234 239 252 248 251
329 324 319 329 330 327 332 329 337 335 341 344 346 357 4 1 37 15 319 321 300 282 260 255 258 255 250 238 258 244 238 234 230 227 221 222 225 239 243 238 232 230 238
328 328 327 322 327 322 330 319 330 332 340 343 346 348 5 11 7 44 65 82 116 291 291 269 252 257 246 250 249 236 237 225 235 209 232 225 220 214 215 211 212 230 249
315 312 312 320 317 321 326 330 324 339 334 343 342 347 359 6 12 26 23 52 55 75 96 121 177 237 236 237 212 215 205 212 173 235 206 201 194 197 192 196 206 217 215
312 317 311 315 326 322 324 331 337 326 340 331 339 345 353 4 12 16 30 37 47 77 75 84 83 112 120 127 150 170 200 180 179 178 192 190 202 205 230 235 189 198 202
320 318 321 324 313 315 325 327 333 328 332 340 339 343 343 357 6 10 23 30 35 28 42 38 52 84 112 121 119 103 115 132 115 113 105 108 125 137 140 122 160 169 206
314 315 308 316 308 316 320 325 324 329 335 341 345 348 349 346 353 7 14 14 20 25 29 26 27 46 39 36 64 69 80 87 81 82 107 140 153 152 156 175 182 190 182
304 306 311 308 310 307 313 317 320 327 333 340 344 353 357 360 360 348 356 6 16 20 16 17 20 8 5 341 294 267 213 180 190 219 239 243 245 249 229 221 216 220 225
305 308 302 306 307 303 303 308 315 318 324 332 342 342 351 349 358 355 6 2 359 351 354 1 3 2 355 354 346 338 323 300 282 262 254 251 247 242 242 247 235 243 234
Height
3200 3201 3206 3208 3209 3209 3208 3208 3206 3208 3207 3205 3204 3204 3203 3203 3202 3201 3200 3200 3198 3197 3197 3196 3195 3194 3193 3193 3193 3192 3192 3189 3186 3186 3186 3185 3183 3182 3183 3182 3180 3179 3178
3197 3198 3201 3203 3203 3204 3205 3204 3203 3203 3201 3200 3198 3197 3195 3194 3193 3192 3192 3191 3190 3189 3189 3188 3187 3187 3185 3185 3184 3184 3183 3183 3181 3178 3178 3177 3177 3176 3175 3174 3174 3173 3171
3191 3193 3195 3198 3197 3199 3198 3197 3196 3194 3192 3190 3189 3187 3186 3185 3183 3182 3180 3180 3178 3178 3178 3177 3177 3177 3176 3175 3175 3174 3174 3173 3172 3170 3169 3170 3169 3169 3167 3165 3163 3163 3163
3186 3187 3187 3189 3191 3191 3189 3187 3185 3184 3182 3180 3178 3176 3174 3172 3170 3169 3167 3164 3165 3164 3163 3164 3165 3164 3164 3164 3164 3164 3164 3164 3163 3161 3160 3161 3162 3162 3160 3158 3157 3156 3154
3182 3182 3181 3183 3183 3180 3174 3175 3173 3170 3167 3164 3161 3159 3158 3156 3155 3152 3150 3148 3146 3147 3147 3147 3149 3150 3151 3151 3150 3152 3152 3152 3153 3153 3152 3153 3154 3152 3152 3153 3152 3152 3152
3179 3178 3178 3177 3174 3171 3168 3164 3160 3155 3151 3147 3144 3140 3139 3137 3136 3135 3132 3128 3127 3127 3128 3129 3131 3132 3134 3136 3137 3138 3139 3139 3139 3140 3141 3142 3142 3144 3143 3143 3144 3144 3143
3167 3166 3164 3161 3159 3155 3151 3146 3141 3136 3131 3127 3124 3120 3117 3115 3114 3112 3111 3108 3107 3107 3107 3108 3110 3113 3115 3118 3121 3123 3123 3124 3125 3127 3127 3129 3130 3132 3132 3130 3130 3130 3130
3161 3159 3157 3154 3150 3146 3141 3136 3131 3125 3120 3114 3107 3101 3096 3093 3090 3088 3086 3083 3082 3085 3087 3088 3089 3092 3096 3100 3103 3106 3106 3108 3111 3113 3111 3116 3116 3118 3121 3119 3118 3117 3116
3152 3148 3144 3140 3136 3131 3126 3120 3113 3105 3101 3096 3089 3082 3075 3071 3068 3066 3064 3060 3060 3061 3064 3067 3070 3072 3076 3082 3086 3087 3089 3092 3096 3098 3097 3101 3101 3103 3106 3106 3105 3105 3103
3143 3139 3136 3132 3126 3120 3113 3106 3098 3091 3082 3075 3072 3067 3062 3056 3051 3046 3043 3040 3038 3040 3041 3044 3047 3052 3057 3062 3067 3070 3071 3077 3082 3083 3082 3086 3088 3088 3093 3094 3094 3092 3094
3135 3132 3128 3124 3119 3111 3104 3098 3089 3080 3069 3062 3054 3049 3045 3041 3036 3030 3028 3022 3019 3019 3021 3023 3027 3032 3037 3044 3049 3052 3055 3064 3068 3066 3069 3071 3074 3076 3079 3083 3084 3084 3083
3128 3125 3120 3114 3110 3104 3099 3092 3082 3072 3059 3048 3039 3034 3027 3024 3021 3017 3014 3011 3006 3003 3002 3004 3007 3011 3016 3022 3028 3033 3040 3046 3051 3051 3053 3056 3061 3066 3068 3071 3072 3074 3073
3122 3118 3114 3109 3104 3097 3092 3086 3075 3064 3053 3040 3030 3020 3012 3009 3008 3005 3000 2996 2992 2988 2988 2988 2991 2995 2999 3005 3014 3019 3025 3030 3035 3036 3038 3043 3050 3057 3056 3057 3060 3064 3065
3116 3112 3108 3103 3099 3096 3089 3082 3072 3061 3047 3035 3023 3013 3002 2997 2993 2990 2986 2981 2978 2974 2972 2973 2975 2979 2982 2989 2996 3003 3007 3014 3019 3023 3026 3032 3039 3042 3045 3048 3049 3052 3052
3111 3106 3102 3102 3098 3092 3086 3077 3068 3060 3046 3030 3020 3009 2995 2984 2982 2978 2973 2967 2965 2964 2962 2960 2961 2965 2970 2976 2983 2989 2996 3002 3006 3011 3015 3020 3027 3031 3034 3037 3039 3041 3042
3104 3101 3099 3095 3093 3089 3080 3071 3065 3056 3044 3033 3020 3008 2993 2979 2966 2962 2960 2956 2953 2953 2951 2951 2952 2955 2961 2967 2973 2980 2985 2990 2997 3001 3005 3011 3016 3020 3023 3027 3028 3030 3032
3100 3096 3094 3091 3089 3082 3075 3069 3059 3051 3043 3032 3017 3005 2989 2971 2960 2953 2949 2946 2944 2944 2943 2945 2949 2952 2956 2961 2966 2971 2975 2982 2988 2992 2997 3002 3006 3010 3010 3016 3018 3020 3021
3094 3093 3091 3090 3083 3076 3070 3063 3055 3046 3037 3029 3017 3003 2989 2971 2956 2951 2947 2943 2941 2940 2940 2943 2947 2950 2954 2956 2961 2964 2969 2975 2980 2984 2988 2992 2995 2999 3002 3005 3009 3010 3012
3092 3092 3090 3085 3080 3075 3067 3063 3056 3046 3036 3027 3015 3007 2990 2975 2957 2950 2947 2943 2941 2938 2937 2938 2941 2944 2948 2951 2954 2958 2962 2966 2972 2976 2980 2982 2985 2990 2994 2996 2998 3001 3003
3091 3088 3085 3083 3078 3073 3066 3061 3053 3044 3035 3026 3017 3007 2995 2982 2965 2954 2947 2944 2940 2940 2940 2939 2939 2942 2944 2947 2951 2953 2958 2960 2966 2967 2971 2978 2978 2981 2986 2991 2992 2994 2995
3090 3087 3084 3080 3076 3072 3064 3059 3051 3041 3034 3027 3018 3008 2998 2989 2979 2967 2959 2952 2938 2939 2939 2941 2939 2940 2943 2945 2948 2954 2946 2959 2950 2953 2968 2966 2971 2974 2979 2983 2986 2987 2989
3086 3082 3081 3075 3071 3068 3063 3056 3048 3044 3036 3028 3018 3008 3001 2993 2986 2978 2971 2964 2956 2950 2948 2945 2938 2940 2940 2943 2948 2946 2951 2955 2956 2958 2961 2962 2963 2965 2974 2979 2982 2982 2982
3083 3078 3076 3072 3068 3064 3060 3054 3050 3044 3037 3031 3022 3012 3003 2997 2991 2983 2977 2971 2967 2963 2959 2957 2953 2950 2947 2948 2949 2950 2956 2960 2954 2955 2960 2963 2963 2966 2974 2981 2982 2979 2979
3078 3075 3072 3068 3064 3060 3057 3052 3048 3042 3036 3031 3025 3019 3011 3000 2993 2987 2982 2976 2972 2970 2967 2964 2960 2958 2960 2961 2962 2961 2962 2961 2960 2960 2963 2966 2968 2972 2976 2979 2980 2979 2980
3076 3072 3067 3064 3060 3058 3054 3050 3044 3039 3034 3029 3024 3018 3014 3008 3003 2993 2987 2981 2978 2976 2973 2971 2971 2970 2969 2969 2970 2969 2966 2963 2963 2965 2968 2970 2973 2973 2974 2976 2975 2977 2979
3069 3068 3065 3061 3058 3054 3050 3044 3041 3036 3032 3027 3023 3017 3013 3009 3004 3000 2995 2990 2985 2979 2975 2974 2973 2972 2971 2971 2969 2968 2966 2965 2965 2965 2965 2967 2968 2970 2972 2972 2972 2972 2973